Location: *
(51.4660°N, 0.3360°W)
Time: 22:01:31
(UTC+00:00)

Cosmos 1437 Rocket - Pass Details

Date: 19 September 2019
Orbit: 506 x 563 km, 81.2° (Epoch: 20 October)

Event Time Altitude Azimuth Distance (km) Brightness Sun altitude
Rises 20:43:34 0° 340° (NNW) 2,647 7.2 -23.5°
Reaches altitude 10° 20:45:50 10° 332° (NNW) 1,747 6.2 -23.8°
Maximum altitude 20:49:21 36° 266° (W) 830 4.0 -24.3°
Enters shadow 20:50:06 32° 239° (WSW) 891 4.0 -24.4°
